DECAYED

STARLINK-1244, 45196 (Decayed)

Orbit data source: Space-Track

STARLINK-1244, 45196 was a payload satellite owned by SpaceX/Seattle (US) in LEO that was launched on Mon, 17 Feb 2020 UTC via an FALCON 9 launch vehicle from the Air Force Eastern Test Range (AFETR). Payload-class satellites include a variety of spacecraft equipped with specific instruments for various scientific and technological missions. These include communications satellites like Starlink; space stations such as the ISS; scientific satellites like the Hubble; Earth observation satellites from companies like Planet Labs, Umbra, and HawkEye 360; GPS; miniature CubeSats for education and research; and military/defense satellites.

Not visible in the next 10 days
Identifier
45196, 2020-012U
Orbit
Decayed
Country
Flag of USUS
Related business
Manufacturer
SpaceX/Seattle
Mission
Decayed Commercial Communications
Bus & Motor
STARLINK, Unknown motor
Mass
260 kg wet, ~248 kg dry
Launch date (UTC)
2020-02-17 (6 years ago)
Launch vehicle
FALCON 9
Launch site
Air Force Eastern Test Range (AFETR)
Object type
Payload
Rocket body
Debris
Shape & HBR
Box + 1 Pan, 10.1 m
Radar Cross Section
13.562 m², Large (>1 m²)

Expand to show TLE details & history
Last TLE update: 3 weeks ago

TLE from 3 weeks ago
0 STARLINK-1244
1 45196U 20012U   25270.54546848  .08158305  12349-4  64899-3 0  9992
2 45196  53.0259 356.6192 0002699 278.5575  81.5165 16.39294833311164
Epoch: 2025-09-27T13:05Z
TLE epoch observation values (Epoch: 2025-09-27T13:05:28.476Z)
Latitude
-0.00003°
Longitude
153.67417°
Altitude
168.346 km
Speed
7.807 km/s
True Right ascension
23h 46m 28s
True Declination
0° 00' 00"
Sunlit
Object was in full shadow at epoch
Visualization orbit readout
Latitude
Unknown
Longitude
Unknown
Altitude
Unknown
Speed
Unknown
Apparent Right ascension
Unknown
Apparent Declination
Unknown
Sunlit
N/A
Visualization observer readout
Local Sidereal Time
12:17:02
Azimuth
Unknown
Elevation
Unknown
Doppler factor
Unknown
Orbital elements
Apogee altitude
169.737 km
Perigee altitude
166.203 km
Semi-major axis
6,546.107 km
Eccentricity
0.00027
Inclination
53.0259°
RAAN
356.6192°
Arg. of periapsis
278.5575°
True anomaly
81.54709°
Mean anomaly
81.5165°
Eccentric anomaly
81.5318°
Mean motion
4.09797 °/min
Orbital period
87.85 mins
BSTAR
0.00064899
Loading maneuver chart data...
Computing Atmospheric mass density...

Documentation

Showing up to 5 results
|